Location: Chevoux
(46.3801°N, 4.9476°E)
Time: 04:53:13
(UTC+00:00)

Envisat - Pass Details

Date: 01 December 2021
Orbit: 764 x 766 km, 98.2° (Epoch: 16 January)

Event Time Altitude Azimuth Distance (km) Brightness Sun altitude
Rises 17:00:37 0° 207° (SSW) 3,220 7.0 -10.9°
Reaches altitude 10° 17:03:35 10° 225° (SW) 2,300 6.6 -11.4°
Maximum altitude 17:07:06 19° 270° (W) 1,776 5.9 -12.0°
Drops below altitude 10° 17:10:39 10° 314° (NW) 2,313 5.9 -12.6°
Sets 17:13:39 0° 333° (NNW) 3,244 6.4 -13.1°
